Location: Clover
(42.5131°N, 114.6874°W)
Time: 12:11:54
(UTC+00:00)

Explorer 7 - Visible Passes

Search period start: 09 December 2025 00:00
Search period end: 19 December 2025 00:00
Orbit: 436 x 554 km, 50.3° (Epoch: 09 December)

Date Brightness Start Highest point End Pass type
(mag) Time Alt. Az. Time Alt. Az. Time Alt. Az.
09 Dec 8.5 01:11:27 10° SSE 01:13:17 14° SE 01:14:20 12° ESE visible
09 Dec 9.1 02:47:54 10° WSW 02:48:52 18° WSW 02:48:52 18° WSW visible
10 Dec 8.6 00:48:06 10° SSE 00:49:56 14° SE 00:51:45 10° ESE visible
10 Dec 7.8 02:24:32 10° WSW 02:26:45 36° WSW 02:26:45 36° WSW visible
11 Dec 6.3 02:01:08 10° WSW 02:04:33 83° WSW 02:04:33 83° WSW visible
12 Dec 6.3 01:37:42 10° WSW 01:41:15 89° NW 01:42:15 45° ENE visible
13 Dec 6.3 01:14:15 10° WSW 01:17:49 89° NW 01:19:53 23° ENE visible
13 Dec 9.4 02:53:39 10° WNW 02:54:24 14° WNW 02:54:24 14° WNW visible
14 Dec 6.4 00:50:45 10° WSW 00:54:21 90° N 00:57:27 13° ENE visible
14 Dec 8.6 02:30:10 10° WNW 02:31:57 21° NW 02:31:57 21° NW visible
15 Dec 7.9 02:06:40 10° WNW 02:09:27 26° NNW 02:09:27 26° NNW visible
16 Dec 7.8 01:43:06 10° WNW 01:46:11 27° NNW 01:46:55 25° N visible
17 Dec 7.8 01:19:31 10° WNW 01:22:38 27° NNW 01:24:20 18° NNE visible
18 Dec 7.8 00:55:55 10° WNW 00:59:03 27° NNW 01:01:44 12° NE visible
18 Dec 9.1 02:35:25 10° NW 02:36:14 14° NW 02:36:14 14° NW visible
